Location: Recife
(8.0585°S, 34.8848°W)
Time: 12:46:46
(UTC-03:00)

Vanguard 2 - Pass Details

Date: 17 April 2026
Orbit: 554 x 2894 km, 32.9° (Epoch: 7 May)

Event Time Altitude Azimuth Distance (km) Brightness Sun altitude
Rises 04:12:33 0° 232° (SW) 6,462 - -17.7°
Exits shadow 04:17:02 - 227° (SW) 5,318 11.3 -16.6°
Reaches altitude 10° 04:17:30 10° 227° (SW) 5,199 11.3 -16.5°
Maximum altitude 04:31:10 51° 155° (SSE) 2,191 9.9 -13.2°
Drops below altitude 10° 04:39:36 10° 81° (E) 3,303 12.4 -11.1°
Sets 04:42:01 0° 75° (ENE) 4,010 13.4 -10.5°
